Regional Weather Roundup
Issued by NWS Green Bay, WI

Home | Current Version | Previous Version | Graphics & Text | Print | Product List | Glossary Off
Versions: 1 2 3 4 5 6 7 8 9 10 11 12 13 14 15 16 17 18 19 20 21 22 23 24 25 26 27 28 29 30 31 32 33 34 35 36 37 38 39 40 41 42 43 44 45 46 47 48 49 50

000
ASUS43 KGRB 300111
RWRGRB

NORTH-CENTRAL AND NORTHEAST WISCONSIN REGIONAL WEATHER ROUNDUP
NATIONAL WEATHER SERVICE GREEN BAY WI
800 PM CDT SAT AUG 29 2015

WIZ005-009-010>012-018-019-300200-
NORTH CENTRAL WISCONSIN

CITY           SKY/WX    TMP DP  RH WIND       PRES   REMARKS
IRONWOOD       CLEAR     64  63  94 CALM      29.98R
MANITOWISH WTR PTCLDY    63  63 100 CALM      30.03S
ARBOR VITAE    CLEAR     66  62  85 S3        30.04S
EAGLE RIVER    CLEAR     65  58  78 SW3       30.04R
LAND O LAKES   CLEAR     66  60  81 CALM      30.04S
RHINELANDER    CLEAR     64  59  83 CALM      30.06R
PHILLIPS       PTCLDY    67  62  84 SW5       30.04R
ANTIGO         CLEAR     59  58  97 SW3       30.07R
TOMAHAWK       CLEAR     62  59  91 CALM      30.06R
MERRILL        CLEAR     64  61  91 CALM      30.06S
$$

WIZ013-073-300200-
NORTHEAST WISCONSIN

CITY           SKY/WX    TMP DP  RH WIND       PRES   REMARKS
IRON MOUNTAIN  CLEAR     67  61  81 S7        30.02R
MARINETTE      CLEAR     64  57  77 CALM      30.03R
OCONTO         CLEAR     62  62 100 CALM      30.04R
$$

WIZ017-030-035>037-045-300200-
CENTRAL WISCONSIN

CITY           SKY/WX    TMP DP  RH WIND       PRES   REMARKS
MEDFORD        PTCLDY    60  59  96 S5        30.06S
WAUSAU         CLEAR     63  60  90 SW5       30.04F
MOSINEE        CLOUDY    63  61  94 SW3       30.07S
MARSHFIELD     CLOUDY    65  58  78 CALM      30.06S
WISC RAPIDS    CLOUDY    66  59  78 NE5       30.07R
STEVENS POINT  CLOUDY    62  58  87 CALM      30.07R
WAUPACA        CLOUDY    67  64  88 NW6       30.05R
SHAWANO        CLEAR     65  62  90 W5        30.05R
CLINTONVILLE   CLOUDY    64  61  88 NW5       30.05R
WAUTOMA        CLOUDY    67  64  90 CALM      30.06R
$$

WIZ038-039-048-051-300200-
FOX VALLEY

CITY           SKY/WX    TMP DP  RH WIND       PRES   REMARKS
NWS GREEN BAY  CLEAR     64  61  90 CALM      30.04R
APPLETON       CLOUDY    66  61  82 VRB5      30.03R
OSHKOSH        CLOUDY    67  62  84 CALM      30.04R
FOND DU LAC    CLOUDY    67  62  84 CALM      30.05R
$$

WIZ022-050-052-300200-
EAST CENTRAL WISCONSIN

CITY           SKY/WX    TMP DP  RH WIND       PRES   REMARKS
EPHRAIM        FAIR      61  60  96 S3        30.03R
STURGEON BAY   CLEAR     63  57  82 S7        30.06S
MANITOWOC      CLEAR     59  58  96 MISG      30.05S FOG
SHEBOYGAN      CLOUDY    64  61  90 CALM      30.05R
$$

LMZ563-521-522-541>543-300200-
LAKESHORE

STATION/POSITION TIME  TEMP    WIND        PRES    VSBY  WAVE
                       AIR SEA DIR/SP/G                  HT/PER
                 (UTC) (F)     (DEG/KT/KT) (MB)    (MI)  (FT/S)
SHEBOYGAN LKSHOR 0100   59     170/  2/  3 1017.8R
ALGOMA MARINA    0014             CALM       N/A
NORTHPORT PIER   0100   63     180/  1/ 13 1016.9R
N MID LAKE BUOY  0050   64 65  210/  8/  8 1016.7F         1
S GREEN BAY BUOY 0100   64 63  120/  4/  6 1018.4
SISTER BAY LKSHO 0019   66     160/  6/  7   N/A
CHAMBERS ISLAND  0000   66     160/  2/  6 1016.6F
$$


USA.gov is the U.S. government's official web portal to all federal, state and local government web resources and services.